Home   Weather   Lautoka   Past weeks

Flag for Fiji Past Weather in Lautoka, Fiji — Yesterday and Last 2 Weeks

Now
70 °F

Passing clouds.


Feels Like: 70 °F
Forecast: 74 / 86 °F
Wind: 6 mph from Northeast

Location: Nandi

Current Time: Feb 25, 2017 at 7:46:04 am

Latest Report: Feb 25, 2017 at 7:00 am


Visibility: N/A

Pressure: 29.80 "Hg

Humidity: 88%

Dew Point: 66 °F

Location of LautokaLocation

Past Weather in Lautoka — Graph

°F

Lautoka Temperature Yesterday

Maximum temperature yesterday: 86 °F (at 10:00 am)
Minimum temperature yesterday: 72 °F (at 5:00 am)
Average temperature yesterday: 79 °F

High & Low Weather Summary for the Past Weeks

 TemperatureHumidityPressure
High90 °F (Feb 20, 2:00 pm)100% (Feb 13, 1:00 am)29.86 "Hg (Feb 13, 1:00 am)
Low70 °F (Feb 25, 2:00 am)43% (Feb 24, 11:00 am)29.53 "Hg (Feb 21, 2:00 pm)
Average80 °F85%29.73 "Hg
* Reported Feb 10 6:00 am — Feb 25 6:00 am, Lautoka, Weather by CustomWeather, © 2017

Note: Actual official high and low records may vary slightly from our data, if they occured in-between our weather recording intervals... More about our weather records

Advertising

Lautoka Weather History for the Previous 24 Hours

Scroll right to see more
 ConditionsComfort  
Time TempWeatherWind HumidityBarometerVisibility
6:00 am
Sat, Feb 25
70 °FPassing clouds.5 mph88%29.77 "HgN/A
5:00 am70 °FPassing clouds.3 mph88%29.77 "HgN/A
4:00 am70 °FPassing clouds.3 mph88%29.74 "HgN/A
3:00 am70 °FPassing clouds.6 mph94%29.77 "HgN/A
2:00 am70 °FPassing clouds.5 mph94%29.77 "HgN/A
1:00 am72 °FPassing clouds.5 mph88%29.80 "HgN/A
12:00 am72 °FPassing clouds.3 mph88%29.80 "HgN/A
11:00 pm
Fri, Feb 24
72 °FPassing clouds.5 mph88%29.83 "HgN/A
10:00 pm73 °FPassing clouds.6 mph83%29.83 "HgN/A
9:00 pm75 °FPassing clouds.3 mph74%29.83 "HgN/A
8:00 pm77 °FPassing clouds.3 mph69%29.80 "HgN/A
7:00 pm81 °FPassing clouds.7 mph58%29.80 "HgN/A
6:00 pm84 °FPassing clouds.10 mph51%29.77 "HgN/A
5:00 pm86 °FPassing clouds.13 mph49%29.74 "HgN/A
4:00 pm86 °FPassing clouds.15 mph49%29.74 "HgN/A
3:00 pm86 °FScattered clouds.14 mph52%29.74 "HgN/A
2:00 pm86 °FScattered clouds.14 mph52%29.77 "HgN/A
1:00 pm86 °FScattered clouds.13 mph59%29.77 "HgN/A
12:00 pm86 °FScattered clouds.9 mph55%29.80 "HgN/A
11:00 am86 °FPassing clouds.5 mph43%29.80 "HgN/A
10:00 am86 °FPassing clouds.5 mph55%29.80 "HgN/A
9:00 am82 °FPassing clouds.6 mph66%29.83 "HgN/A
8:00 am79 °FPassing clouds.3 mph74%29.83 "HgN/A
7:00 am72 °FScattered clouds.5 mph88%29.80 "HgN/A
Weather by CustomWeather, © 2017

See weather overviewHow to use our weather pages